This demonstration page uses our WeatherBlox Daily Observations layout. Learn more.

Left ArrowRight Arrow

Hourly Observations for March 14, 2020

Temp ( °F °C ) Dew Point ( °F °C ) Humidity (%) Winds ( mph kmh ) Pressure ( in mb ) Visibility ( mi km ) Precip ( " mm )
12:19 am 00:19 Cloudy with Light Snow 30 -1 28 -2 93 93 E 15 24 30.38 1029 2 3 0.01 0.25
12:52 am 00:52 Cloudy with Light Snow 30 -1 28 -2 93 93 E 15 24 30.39 1029 3 5 0.01 0.25
12:56 am 00:56 Cloudy with Light Wintry Mix 30 -1.1 29 -1.7 96 96 E 15 24 30.34 1027 3 5 0.01 0.25
1:56 am 01:56 Cloudy with Light Snow 30 -1.1 29 -1.7 96 96 E 13 20 30.35 1028 3 4 0.00 0.00
2:07 am 02:07 Cloudy with Light Snow 30 -1 28 -2 93 93 E 14 22 30.40 1029 3 5 0.00 0.00
2:22 am 02:22 Cloudy with Light Snow 30 -1 28 -2 93 93 E 14 22 30.39 1029 2 3 0.00 0.00
2:29 am 02:29 Cloudy with Light Snow 30 -1 28 -2 93 93 E 14 22 30.39 1029 2 2 0.00 0.00
2:34 am 02:34 Cloudy with Light Snow 30 -1 30 -1 100 100 E 14 22 30.39 1029 1 2 0.00 0.00
2:44 am 02:44 Cloudy with Light Snow 30 -1 30 -1 100 100 ENE 16 26 30.39 1029 1 1 0.00 0.00
2:51 am 02:51 Cloudy with Light Snow 30 -1 30 -1 100 100 ENE 16 26 30.39 1029 1 2 0.00 0.00
2:56 am 02:56 Cloudy with Light Snow 30 -1.1 30 -1.1 100 100 ENE 15 24 30.34 1027 2 2 0.00 0.00
3:00 am 03:00 Cloudy with Light Snow 30 -1 30 -1 100 100 ENE 16 26 30.39 1029 2 3 0.00 0.00
3:08 am 03:08 Cloudy with Light Snow 30 -1 30 -1 100 100 ENE 17 28 30.38 1029 3 4 0.00 0.00
3:16 am 03:16 Cloudy with Light Snow 30 -1 30 -1 100 100 ENE 17 28 30.38 1029 3 5 0.00 0.00
3:23 am 03:23 Cloudy with Light Snow 30 -1 30 -1 100 100 E 18 30 30.38 1029 3 4 0.00 0.00
3:35 am 03:35 Cloudy with Light Snow 30 -1 30 -1 100 100 E 17 28 30.38 1029 3 4 0.00 0.00
3:56 am 03:56 Cloudy with Light Snow 30 -1.1 30 -1.1 100 100 ENE 14 22 30.34 1027 3 4 0.00 0.00
4:09 am 04:09 Cloudy with Light Snow 30 -1 28 -2 93 93 ENE 15 24 30.38 1029 3 4 0.00 0.00
4:39 am 04:39 Cloudy with Light Snow 30 -1 30 -1 100 100 ENE 14 22 30.37 1028 3 5 0.00 0.00
4:56 am 04:56 Cloudy with Light Snow 31 -0.6 30 -1.1 96 96 E 17 28 30.32 1027 4 6 0.00 0.00
5:56 am 05:56 Windy with Snow Likely 31 -0.6 30 -1.1 96 96 E 20 31 30.32 1027 5 8 0.01 0.25
6:56 am 06:56 Cloudy with Light Snow 31 -0.6 30 -1.1 96 96 E 18 30 30.33 1027 5 8 0.00 0.00
7:56 am 07:56 Cloudy with Light Wintry Mix 31 -0.6 30 -1.1 96 96 E 18 30 30.36 1028 10 16 0.01 0.25
8:56 am 08:56 Cloudy 31 -0.6 30 -1.1 96 96 E 18 30 30.38 1029 10 16 0.01 0.25
9:56 am 09:56 Cloudy 32 0 30 -1.1 92 92 E 18 30 30.38 1029 10 16 0.01 0.25
10:56 am 10:56 Cloudy 33 0.6 30 -1.1 89 89 E 17 28 30.41 1030 9 14 0.01 0.25
11:56 am 11:56 Cloudy 33 0.6 30 -1.1 89 89 E 18 30 30.42 1030 10 16 0.01 0.25
12:56 pm 12:56 Cloudy with Mist and Fog 32 0 30 -1.1 92 92 E 20 31 30.43 1031 4 6 0.00 0.00
1:45 pm 13:45 Cloudy with Light Wintry Mix 32 0 30 -1 93 93 E 17 28 30.47 1032 5 8 0.00 0.00
1:56 pm 13:56 Cloudy with Mist and Fog 33 0.6 31 -0.6 92 92 E 16 26 30.44 1031 3 5 0.00 0.00
2:56 pm 14:56 Cloudy with Mist and Fog 32 0 30 -1.1 92 92 E 18 30 30.43 1031 4 6 0.00 0.00
3:56 pm 15:56 Cloudy with Mist and Fog 31 -0.6 30 -1.1 96 96 ENE 18 30 30.44 1031 3 5 0.00 0.00
4:03 pm 16:03 Cloudy with Mist and Fog 30 -1 28 -2 93 93 ENE 16 26 30.48 1032 2 3 0.00 0.00
4:12 pm 16:12 Cloudy with Mist and Fog 30 -1 30 -1 100 100 ENE 16 26 30.48 1032 2 3 0.00 0.00
4:56 pm 16:56 Cloudy with Mist and Fog 30 -1.1 29 -1.7 96 96 E 18 30 30.45 1031 3 5 0.00 0.00
5:24 pm 17:24 Cloudy with Mist and Fog 30 -1 28 -2 93 93 E 16 26 30.50 1033 5 8 0.00 0.00
5:56 pm 17:56 Cloudy with Mist and Fog 30 -1.1 29 -1.7 96 96 E 16 26 30.47 1032 6 10 0.00 0.00
6:56 pm 18:56 Cloudy 30 -1.1 28 -2.2 92 92 ENE 16 26 30.49 1033 7 11 0.00 0.00
7:56 pm 19:56 Cloudy with Mist and Fog 29 -1.7 28 -2.2 96 96 E 14 22 30.53 1034 5 8 0.00 0.00
8:56 pm 20:56 Cloudy with Mist and Fog 29 -1.7 28 -2.2 96 96 E 13 20 30.54 1034 5 8 0.00 0.00
9:56 pm 21:56 Cloudy with Mist and Fog 29 -1.7 28 -2.2 96 96 E 13 20 30.55 1035 5 8 0.00 0.00
10:56 pm 22:56 Cloudy 29 -1.7 28 -2.2 96 96 E 12 19 30.57 1035 8 13 0.00 0.00
11:27 pm 23:27 Cloudy 28 -2 28 -2 100 100 E 10 17 30.61 1037 10 16 0.00 0.00
11:56 pm 23:56 Cloudy 29 -1.7 28 -2.2 96 96 ESE 10 17 30.57 1035 10 16 0.00 0.00

Powered by AerisWeather